Regional Weather Roundup
Issued by NWS

Home | Current Version | Previous Version | Graphics & Text | Print | Product List | Glossary On
Versions: 1 2 3 4 5 6 7 8 9 10 11 12 13 14 15 16 17 18 19 20 21 22 23 24 25 26 27 28 29 30 31 32 33 34 35 36 37 38 39 40 41 42 43 44 45 46 47 48 49
000
ASUS45 KCYS 292210
RWRWY

WYOMING REGIONAL WEATHER ROUNDUP
NATIONAL WEATHER SERVICE CHEYENNE WY
400 PM MDT MON SEP 29 2014

NOTE:  "FAIR" INDICATES FEW OR NO CLOUDS BELOW 12,000 FEET
WITH NO SIGNIFICANT WEATHER AND/OR OBSTRUCTIONS TO VISIBILITY.

WYZ001-292300-
YELLOWSTONE NATIONAL PARK

CITY           SKY/WX    TMP DP  RH WIND       PRES   REMARKS
LK YELLOWSTONE   N/A     44  36  73 VRB6      30.01R
W YELLOWSTONE  NOT AVBL

$$
WYZ002>013-054>058-071-098>099-292300-
NORTHERN WYOMING

CITY           SKY/WX    TMP DP  RH WIND       PRES   REMARKS
JACKSON        PTSUNNY   48  39  71 S13       30.00S
CODY           PTSUNNY   57  46  67 W5        29.86F
GREYBULL       MOSUNNY   66  47  50 S9        29.83F
WORLAND        MOSUNNY   65  47  52 NE5       29.83F
SHERIDAN       PTSUNNY   63  47  55 NE3       29.85F
BUFFALO        PTSUNNY   63  47  55 S15       29.87F
GILLETTE         N/A     63  49  60 SE16      29.88F
HULETT         FAIR      63  52  67 N3        29.91
NEWCASTLE      CLOUDY    55  50  82 S10       29.94

$$
WYZ014>020-022>026-101>103-292300-
CENTRAL WYOMING

CITY           SKY/WX    TMP DP  RH WIND       PRES   REMARKS
BIG PINEY      CLOUDY    56  37  49 N12       30.00F
PINEDALE       MOCLDY    46  37  71 NE6       30.02F
DUBOIS         FAIR      48  36  61 NW13      29.96S
LANDER         MOSUNNY   64  36  35 VRB6      29.87F
RIVERTON       MOSUNNY   62  44  51 NW8       29.89F
CASPER         PTSUNNY   58  41  53 W16G25    29.93R
DOUGLAS        MOSUNNY   63  47  55 SE12      29.91F

$$
WYZ021-027>030-104>119-292300-
SOUTHERN WYOMING

CITY           SKY/WX    TMP DP  RH WIND       PRES   REMARKS
EVANSTON       CLOUDY    52  34  50 W15       30.02S
KEMMERER       MOCLDY    46  39  76 W6        30.03F
FORT BRIDGER   MOCLDY    53  39  59 NW15G23   30.04S
ROCK SPRINGS   MOSUNNY   54  34  46 W10       29.99S
DIXON          FAIR      55  41  59 W13       30.02S
RAWLINS        CLOUDY    56  37  49 SW14      29.96F
SARATOGA         N/A     54  36  50 W14G20    30.01R
LARAMIE        TSTM      49  42  77 SE13G29   30.01R
CHEYENNE       CLOUDY    60  46  59 E15       29.92F
TORRINGTON     CLOUDY    62  53  72 E13       29.88F
PINE BLUFFS    MOCLDY    63  52  67 NE12G17   29.90F

$$



USA.gov is the U.S. government's official web portal to all federal, state and local government web resources and services.